Regional Weather Roundup
Issued by NWS Charleston, WV

Home | Current Version | Previous Version | Text Only | Print | Product List | Glossary Off
Versions: 1 2 3 4 5 6 7 8 9 10 11 12 13 14 15 16 17 18 19 20 21 22 23 24 25 26 27 28 29 30 31 32 33 34 35 36 37 38 39 40 41 42 43 44 45 46 47 48 49 50

000
ASUS41 KRLX 290010
RWRRLX
West Virginia Regional Weather Roundup
National Weather Service Charleston WV
800 PM EDT THU MAY 28 2015

Note: "fair" indicates few or no clouds below 12,000 feet with no
significant weather and/or obstructions to visibility.

WVZ003-290100-
Northern Panhandle of West Virginia

CITY           SKY/WX    TMP DP  RH WIND       PRES   REMARKS
WHEELING       CLEAR     76  58  53 NE5       30.21S
$$

WVZ009-290100-
Northwest West Virginia

CITY           SKY/WX    TMP DP  RH WIND       PRES   REMARKS
PARKERSBURG    CLEAR     81  62  52 E3        30.20S
$$

WVZ006-290100-
Western West Virginia

CITY           SKY/WX    TMP DP  RH WIND       PRES   REMARKS
HUNTINGTON     PTCLDY    77  63  61 CALM      30.16S
$$

WVZ015-290100-
West Central West Virginia

CITY           SKY/WX    TMP DP  RH WIND       PRES   REMARKS
CHARLESTON     PTCLDY    81  64  56 CALM      30.17R
$$

WVZ022-031-290100-
North Central West Virginia

CITY           SKY/WX    TMP DP  RH WIND       PRES   REMARKS
CLARKSBURG     PTCLDY    76  62  62 NE10      30.20R
MORGANTOWN     PTCLDY    77  58  51 N5        30.22R
$$

WVZ025-035-042-045-290100-
Southern West Virginia

CITY           SKY/WX    TMP DP  RH WIND       PRES   REMARKS
BECKLEY        PTCLDY    76  58  53 NE3       30.25R
LOGAN            N/A     77  63  61 CALM      30.17R
BLUEFIELD      CLOUDY    72  58  61 VRB3      30.29R
LEWISBURG      PTCLDY    78  60  54 CALM      30.26R
$$

WVZ047-290100-
Northern Mountains of West Virginia

CITY           SKY/WX    TMP DP  RH WIND       PRES   REMARKS
ELKINS         MOCLDY    77  59  53 N3        30.24R
$$

WVZ052-290100-
Eastern Panhandle of West Virginia

CITY           SKY/WX    TMP DP  RH WIND       PRES   REMARKS
MARTINSBURG    CLOUDY    81  62  52 NE6       30.18S
PETERSBURG     CLOUDY    74  64  70 CALM      30.20S
$$


USA.gov is the U.S. government's official web portal to all federal, state and local government web resources and services.